Flag for U.S.A. Weather past 2 weeks in Dayton, Ohio, U.S.A.

Now
83 °F

Passing clouds.


Feels Like: 89 °F
Forecast: 69 / 90 °F
Wind: 2 mph from South

Location: Dayton / Wright-Patterson Air Force Base

Current Time: Sep 4, 2015 at 12:49:03 PM

Latest Report: Sep 4, 2015 at 11:58 AM


Visibility: 10 mi

Pressure: 30.05 "Hg

Humidity: 67%

Dew point: 72 °F

Location of DaytonLocation

Historic Weather in Dayton — Graph

°F

Dayton temperature yesterday

Maximum temperature yesterday: 89 °F (at 3:58 PM)
Minimum temperature yesterday: 66 °F (at 5:58 AM)
Average temperature yesterday: 77 °F

Past Weeks' High & Low Weather Summary

 TemperatureHumidityPressure
High89 °F (Sep 3, 3:58 PM)100% (Aug 24, 5:58 AM)30.21 "Hg (Aug 24, 5:58 AM)
Low53 °F (Aug 25, 6:58 AM)38% (Aug 21, 4:58 PM)29.84 "Hg (Aug 23, 8:58 PM)
Average70 °F75%30.07 "Hg
* Reported Aug 20 10:58 AM — Sep 4 10:58 AM, Dayton, Weather by CustomWeather, © 2015

Note: Actual official high and low records may vary slightly from our data, if they occured in-between our weather recording intervals... More about our weather records

Advertising

Dayton weather history for previous 24 hours

 ConditionsComfort  
Time TempWeatherWind HumidityBarometerVisibility
10:58 AM
Fri, Sep 4
80 °FPassing clouds.3 mph72%30.05 "Hg10 mi
9:58 AM75 °FPassing clouds.5 mph80%30.04 "Hg10 mi
8:58 AM72 °FSunny.3 mph88%30.04 "Hg10 mi
7:58 AM70 °FClear.2 mph92%30.02 "Hg10 mi
6:58 AM70 °FClear.2 mph93%30.00 "Hg10 mi
5:58 AM69 °FPassing clouds.2 mph95%29.99 "Hg10 mi
4:58 AM71 °FPassing clouds.3 mph93%29.98 "Hg10 mi
3:58 AM72 °FPassing clouds.1 mph90%29.97 "Hg10 mi
2:58 AM71 °FClear.1 mph92%29.97 "Hg10 mi
1:58 AM71 °FClear.No wind90%29.96 "Hg10 mi
12:58 AM73 °FClear.2 mph86%29.95 "Hg10 mi
11:58 PM
Thu, Sep 3
74 °FPassing clouds.1 mph87%29.96 "Hg10 mi
10:58 PM75 °FPassing clouds.No wind81%29.96 "Hg10 mi
9:58 PM76 °FPassing clouds.No wind77%29.95 "Hg10 mi
8:58 PM77 °FPassing clouds.1 mph75%29.93 "Hg10 mi
7:58 PM82 °FPassing clouds.6 mph59%29.93 "Hg10 mi
6:58 PM86 °FPassing clouds.7 mph50%29.92 "Hg10 mi
5:58 PM89 °FPassing clouds.8 mph44%29.93 "Hg10 mi
4:58 PM89 °FPassing clouds.9 mph46%29.93 "Hg10 mi
3:58 PM89 °FPassing clouds.6 mph46%29.95 "Hg10 mi
2:58 PM89 °FScattered clouds.8 mph49%29.96 "Hg10 mi
1:58 PM88 °FPassing clouds.8 mph51%29.98 "Hg10 mi
12:58 PM85 °FPassing clouds.6 mph60%30.00 "Hg10 mi
Weather by CustomWeather, © 2015

See weather overviewHow to use our weather pages